GW1267 Weather Reports


Display with metric or nautical units.
time (UTC)temp
F
wind
direction
speed
MPH
gust
MPH
rain 1hr
in
rain 24hr
in
rain mn
in
humidity
%
barometer
mb
20260506015047 61 0 0.0 4.0 0.00 0.00 0.00 71 1015.0
20260506014600 62 343 0.0 1.0 0.00 0.00 0.00 70 1015.0
20260506014046 62 0 0.0 0.0 0.00 0.00 0.00 71 1015.0
20260506013547 61 0 0.0 0.0 0.00 0.00 0.00 71 1015.0
20260506013053 61 0 0.0 0.0 0.00 0.00 0.00 71 1015.0
20260506012547 61 0 0.0 0.0 0.00 0.00 0.00 71 1015.0
20260506012048 61 0 0.0 0.0 0.00 0.00 0.00 71 1015.0
20260506011553 61 0 0.0 0.0 0.00 0.00 0.00 71 1015.1
20260506011047 61 0 0.0 0.0 0.00 0.00 0.00 71 1015.1
20260506010550 61 0 0.0 0.0 0.00 0.00 0.00 71 1015.0
20260506010055 61 0 0.0 0.0 0.00 0.00 0.00 71 1015.0
20260506005547 61 0 0.0 0.0 0.00 0.00 0.00 71 1015.0
20260506005048 61 0 0.0 0.0 0.00 0.00 0.00 71 1015.0
20260506004557 61 0 0.0 0.0 0.00 0.00 0.00 71 1015.1
20260506004047 61 0 0.0 0.0 0.00 0.00 0.00 72 1015.0
20260506003547 61 0 0.0 0.0 0.00 0.00 0.00 72 1015.0
20260506003054 61 0 0.0 0.0 0.00 0.00 0.00 71 1015.1
20260506002547 61 0 0.0 0.0 0.00 0.00 0.00 71 1015.0
20260506002048 61 0 0.0 3.0 0.00 0.00 0.00 71 1015.1
20260506001612 61 0 0.0 3.0 0.00 0.00 0.00 71 1015.1
20260506001048 61 0 0.0 3.0 0.00 0.00 0.00 71 1015.1
20260506000548 61 0 0.0 4.0 0.00 0.00 0.00 72 1015.1
20260506000106 60 0 0.0 5.0 0.00 0.00 0.00 71 1015.2
20260505235550 61 222 0.0 5.0 0.00 0.00 0.00 71 1015.2
20260505235048 61 0 0.0 5.0 0.00 0.00 0.00 71 1015.3
20260505234553 61 0 0.0 3.0 0.00 0.00 0.00 71 1015.3
20260505234049 61 0 0.0 5.0 0.00 0.00 0.00 71 1015.3
20260505233549 61 0 0.0 5.0 0.00 0.00 0.00 71 1015.4
20260505233056 61 254 1.0 5.0 0.00 0.00 0.00 71 1015.4
20260505232547 61 0 0.0 0.0 0.00 0.00 0.00 71 1015.3
20260505232047 61 0 0.0 0.0 0.00 0.00 0.00 71 1015.3
20260505231554 61 0 0.0 0.0 0.00 0.00 0.00 71 1015.4
20260505231050 61 0 0.0 0.0 0.00 0.00 0.00 70 1015.3
20260505230547 61 0 0.0 0.0 0.00 0.00 0.00 71 1015.4
20260505230110 61 0 0.0 0.0 0.00 0.00 0.00 71 1015.4
20260505225548 61 0 0.0 0.0 0.00 0.00 0.00 71 1015.4
20260505225051 61 0 0.0 0.0 0.00 0.00 0.00 71 1015.5
20260505224553 61 0 0.0 0.0 0.00 0.00 0.00 71 1015.5
20260505224049 61 0 0.0 0.0 0.00 0.00 0.00 71 1015.6
20260505223549 61 0 0.0 0.0 0.00 0.00 0.00 71 1015.5
20260505223100 61 0 0.0 2.0 0.00 0.00 0.00 71 1015.5
20260505222549 61 0 0.0 4.0 0.00 0.00 0.00 71 1015.6
20260505222047 61 0 1.0 4.0 0.00 0.00 0.00 71 1015.6
20260505221559 61 0 1.0 6.0 0.00 0.00 0.00 71 1015.7
20260505221049 61 0 0.0 6.0 0.00 0.00 0.00 71 1015.7
20260505220549 61 288 1.0 5.0 0.00 0.00 0.00 71 1015.7
20260505220100 60 0 0.0 6.0 0.00 0.00 0.00 72 1015.7
20260505215549 60 25 0.0 6.0 0.00 0.00 0.00 71 1015.7
20260505215049 61 0 1.0 6.0 0.00 0.00 0.00 71 1015.9
20260505214606 60 0 1.0 5.0 0.00 0.00 0.00 71 1015.8
20260505214049 60 351 1.0 5.0 0.00 0.00 0.00 71 1015.8
20260505213549 60 0 0.0 0.0 0.00 0.00 0.00 71 1015.8
20260505213100 60 0 0.0 0.0 0.00 0.00 0.00 71 1015.8
20260505212549 60 0 0.0 4.0 0.00 0.00 0.00 72 1015.9
20260505212049 60 0 0.0 7.0 0.00 0.00 0.00 72 1015.9
20260505211607 59 0 3.0 7.0 0.00 0.00 0.00 72 1015.9
20260505211050 60 251 0.0 5.0 0.00 0.00 0.00 72 1015.8
20260505210547 60 0 2.0 5.0 0.00 0.00 0.00 71 1015.9
20260505210106 60 0 0.0 4.0 0.00 0.00 0.00 72 1015.9
20260505205551 60 0 0.0 4.0 0.00 0.00 0.00 72 1015.9
20260505205047 60 0 0.0 6.0 0.00 0.00 0.00 72 1016.0
20260505204550 59 0 0.0 6.0 0.00 0.00 0.00 72 1015.9
20260505204049 60 334 3.0 5.0 0.00 0.00 0.00 71 1016.0
20260505203550 60 342 2.0 5.0 0.00 0.00 0.00 71 1016.0
20260505203054 60 0 0.0 0.0 0.00 0.00 0.00 72 1016.0
20260505202550 60 0 0.0 0.0 0.00 0.00 0.00 71 1016.0
20260505202054 60 0 0.0 0.0 0.00 0.00 0.00 72 1016.0
20260505201605 60 0 0.0 0.0 0.00 0.00 0.00 72 1016.0
20260505201047 60 0 0.0 0.0 0.00 0.00 0.00 72 1016.1
20260505200549 59 0 0.0 0.0 0.00 0.00 0.00 72 1016.2
20260505200051 59 0 0.0 5.0 0.00 0.00 0.00 72 1016.2
20260505195548 59 0 0.0 5.0 0.00 0.00 0.00 72 1016.2
20260505195054 59 360 0.0 5.0 0.00 0.00 0.00 72 1016.2
20260505194555 59 0 0.0 4.0 0.00 0.00 0.00 72 1016.1
20260505194048 59 0 0.0 4.0 0.00 0.00 0.00 72 1016.2
20260505193552 59 0 0.0 0.0 0.00 0.00 0.00 72 1016.1
20260505193051 59 0 0.0 0.0 0.00 0.00 0.00 72 1016.1
20260505192553 59 0 0.0 0.0 0.00 0.00 0.00 72 1016.1
20260505192049 58 0 0.0 0.0 0.00 0.00 0.00 72 1016.2
20260505191557 58 0 0.0 0.0 0.00 0.00 0.00 72 1016.3
20260505191050 58 0 0.0 0.0 0.00 0.00 0.00 72 1016.2
20260505190548 57 0 0.0 0.0 0.00 0.00 0.00 72 1016.2
20260505190111 57 0 0.0 0.0 0.00 0.00 0.00 72 1016.2
20260505185549 57 0 0.0 0.0 0.00 0.00 0.00 72 1016.3
20260505185049 57 0 0.0 0.0 0.00 0.00 0.00 72 1016.3
20260505184605 57 0 0.0 0.0 0.00 0.00 0.00 72 1016.2
20260505184050 57 0 0.0 0.0 0.00 0.00 0.00 72 1016.2
20260505183550 57 0 0.0 0.0 0.00 0.00 0.00 71 1016.2
20260505183055 56 0 0.0 0.0 0.00 0.00 0.00 72 1016.2
20260505182548 56 0 0.0 6.0 0.00 0.00 0.00 72 1016.3
20260505182052 56 0 0.0 6.0 0.00 0.00 0.00 72 1016.3
20260505181557 56 188 1.0 6.0 0.00 0.00 0.00 72 1016.1
20260505181052 56 0 0.0 4.0 0.00 0.00 0.00 71 1016.2
20260505180548 56 0 0.0 5.0 0.00 0.00 0.00 70 1016.2
20260505180055 55 0 1.0 6.0 0.00 0.00 0.00 70 1016.2
20260505175549 55 0 1.0 6.0 0.00 0.00 0.00 69 1016.2
20260505175049 55 192 0.0 6.0 0.00 0.00 0.00 69 1016.2
20260505174552 55 245 0.0 6.0 0.00 0.00 0.00 68 1016.2
20260505174049 55 203 1.0 6.0 0.00 0.00 0.00 68 1016.2
20260505173549 55 0 0.0 5.0 0.00 0.00 0.00 67 1016.1
20260505173053 55 0 0.0 5.0 0.00 0.00 0.00 65 1016.1
20260505172548 54 215 0.0 5.0 0.00 0.00 0.00 63 1016.1
20260505172048 54 0 0.0 4.0 0.00 0.00 0.00 62 1016.1
20260505171554 54 0 0.0 4.0 0.00 0.00 0.00 61 1016.1
20260505171051 54 190 0.0 4.0 0.00 0.00 0.00 59 1016.0
20260505170554 53 0 1.0 4.0 0.00 0.00 0.00 58 1016.1
20260505170059 53 0 0.0 4.0 0.00 0.00 0.00 57 1016.0
20260505165548 53 0 0.0 6.0 0.00 0.00 0.00 55 1016.0
20260505165048 53 0 0.0 6.0 0.00 0.00 0.00 52 1016.0
20260505164552 53 198 1.0 5.0 0.00 0.00 0.00 47 1015.9
20260505164048 53 0 0.0 0.0 0.00 0.00 0.00 46 1015.9
20260505163553 53 0 0.0 3.0 0.00 0.00 0.00 46 1015.9
20260505163059 53 0 0.0 4.0 0.00 0.00 0.00 45 1016.0
20260505162548 52 230 0.0 4.0 0.00 0.00 0.00 44 1015.9
20260505162048 52 0 0.0 6.0 0.00 0.00 0.00 43 1015.9
20260505161552 52 232 0.0 6.0 0.00 0.00 0.00 42 1015.8
20260505161050 52 0 2.0 6.0 0.00 0.00 0.00 43 1015.8
20260505160552 52 0 0.0 4.0 0.00 0.00 0.00 42 1015.9
20260505153107 52 0 0.0 3.0 0.00 0.00 0.00 42 1015.8
20260505152549 52 250 0.0 2.0 0.00 0.00 0.00 42 1015.7
20260505152050 52 0 0.0 0.0 0.00 0.00 0.00 42 1015.7
20260505151554 52 0 0.0 4.0 0.00 0.00 0.00 42 1015.7
20260505151048 52 0 0.0 4.0 0.00 0.00 0.00 43 1015.6
20260505150549 52 0 0.0 3.0 0.00 0.00 0.00 43 1015.6
20260505150111 52 0 0.0 3.0 0.00 0.00 0.00 43 1015.6
20260505140549 51 0 0.0 0.0 0.00 0.00 0.00 51 1015.1
20260505140117 51 0 0.0 0.0 0.00 0.00 0.00 51 1015.0
20260505130110 52 0 0.0 0.0 0.00 0.00 0.00 65 1014.7
20260505124611 52 0 0.0 0.0 0.00 0.00 0.00 65 1014.8
20260505124049 52 0 0.0 0.0 0.00 0.00 0.00 65 1014.7
20260505123548 52 0 0.0 2.0 0.00 0.00 0.00 65 1014.7
20260505123114 52 0 0.0 2.0 0.00 0.00 0.00 65 1014.7
20260505122548 52 0 0.0 0.0 0.00 0.00 0.00 65 1014.6
20260505122051 52 0 0.0 3.0 0.00 0.00 0.00 65 1014.7
20260505121556 52 0 0.0 3.0 0.00 0.00 0.00 65 1014.6
20260505121049 52 0 0.0 3.0 0.00 0.00 0.00 65 1014.6
20260505120549 52 0 0.0 4.0 0.00 0.00 0.00 65 1014.5
20260505120056 52 0 0.0 4.0 0.00 0.00 0.00 65 1014.6
20260505115549 52 303 0.0 4.0 0.00 0.00 0.00 65 1014.5
20260505115048 52 0 0.0 4.0 0.00 0.00 0.00 65 1014.5
20260505114602 52 0 0.0 4.0 0.00 0.00 0.00 65 1014.6
20260505114048 52 0 0.0 4.0 0.00 0.00 0.00 65 1014.5
20260505113552 52 0 0.0 0.0 0.00 0.00 0.00 64 1014.4
20260505113055 52 0 0.0 3.0 0.00 0.00 0.00 64 1014.5
20260505112548 52 0 0.0 5.0 0.00 0.00 0.00 64 1014.5
20260505112048 52 0 2.0 6.0 0.00 0.00 0.00 64 1014.4
20260505111600 52 249 1.0 8.0 0.00 0.00 0.00 64 1014.4
20260505111049 52 220 0.0 8.0 0.00 0.00 0.00 64 1014.4
20260505110549 52 217 4.0 8.0 0.00 0.00 0.00 64 1014.4
20260505102048 52 0 0.0 0.0 0.00 0.00 0.00 64 1014.2
20260505101555 52 0 0.0 0.0 0.00 0.00 0.00 64 1014.1
20260505101048 52 0 0.0 0.0 0.00 0.00 0.00 64 1014.0
20260505100551 52 0 0.0 6.0 0.00 0.00 0.00 64 1014.1
20260505100103 52 0 1.0 6.0 0.00 0.00 0.00 64 1014.1
20260505095550 52 0 0.0 4.0 0.00 0.00 0.00 64 1014.0
20260505095053 52 0 1.0 4.0 0.00 0.00 0.00 64 1014.1
20260505094604 52 0 0.0 3.0 0.00 0.00 0.00 65 1014.1
20260505094048 52 0 0.0 3.0 0.00 0.00 0.00 64 1014.0
20260505093551 52 0 0.0 3.0 0.00 0.00 0.00 65 1014.0
20260505093058 52 286 0.0 4.0 0.00 0.00 0.00 64 1013.8
20260505092552 52 0 1.0 5.0 0.00 0.00 0.00 64 1013.8
20260505092049 52 213 0.0 5.0 0.00 0.00 0.00 64 1013.8
20260505091559 52 213 2.0 7.0 0.00 0.00 0.00 64 1013.8
20260505091048 52 207 3.0 7.0 0.00 0.00 0.00 64 1013.7
20260505090548 52 286 1.0 7.0 0.00 0.00 0.00 64 1013.8
20260505090111 52 242 0.0 7.0 0.00 0.00 0.00 64 1013.7
20260505085548 52 0 3.0 7.0 0.00 0.00 0.00 64 1013.8
20260505085051 52 211 3.0 8.0 0.00 0.00 0.00 64 1013.7
20260505084554 52 207 3.0 8.0 0.00 0.00 0.00 65 1013.7
20260505084048 52 195 3.0 7.0 0.00 0.00 0.00 65 1013.6
20260505083548 52 223 2.0 7.0 0.00 0.00 0.00 65 1013.6
20260505083108 52 219 4.0 7.0 0.00 0.00 0.00 65 1013.6
20260505082549 52 228 3.0 8.0 0.00 0.00 0.00 65 1013.6
20260505082048 52 220 3.0 8.0 0.00 0.00 0.00 66 1013.7
20260505081608 52 234 3.0 9.0 0.00 0.00 0.00 66 1013.7
20260505081052 52 214 5.0 10.0 0.00 0.00 0.00 66 1013.7
20260505080552 52 250 4.0 10.0 0.00 0.00 0.00 67 1013.6
20260505080058 53 213 0.0 9.0 0.00 0.00 0.00 67 1013.5
20260505075551 53 213 4.0 10.0 0.00 0.00 0.00 68 1013.4
20260505075051 53 231 4.0 10.0 0.00 0.00 0.00 68 1013.5
20260505074552 53 211 3.0 10.0 0.00 0.00 0.00 69 1013.5
20260505074054 53 272 3.0 10.0 0.00 0.00 0.00 69 1013.4
20260505073552 53 232 4.0 10.0 0.00 0.00 0.00 69 1013.3
20260505073059 53 210 4.0 12.0 0.00 0.00 0.00 69 1013.4
20260505072551 53 185 4.0 12.0 0.00 0.00 0.00 69 1013.2
20260505072052 53 245 1.0 10.0 0.00 0.00 0.00 69 1013.1
20260505071557 53 213 4.0 10.0 0.00 0.00 0.00 69 1013.0
20260505071053 53 195 4.0 9.0 0.00 0.00 0.00 69 1013.0
20260505070552 53 232 4.0 8.0 0.00 0.00 0.00 70 1013.0
20260505070057 53 231 2.0 10.0 0.00 0.00 0.00 70 1012.9
20260505065552 54 235 4.0 11.0 0.00 0.00 0.00 70 1012.8
20260505065051 54 215 4.0 11.0 0.00 0.00 0.00 70 1012.8
20260505064554 54 217 6.0 11.0 0.00 0.00 0.00 70 1012.7
20260505064049 54 223 3.0 9.0 0.00 0.00 0.00 70 1012.8
20260505063552 54 247 3.0 10.0 0.00 0.00 0.00 71 1012.8
20260505063100 54 212 3.0 10.0 0.00 0.00 0.00 71 1012.7
20260505062551 54 218 4.0 9.0 0.00 0.00 0.00 71 1012.7
20260505062049 54 225 1.0 10.0 0.00 0.00 0.00 71 1012.7
20260505061602 54 198 4.0 10.0 0.00 0.00 0.00 72 1012.7
20260505061050 54 219 4.0 9.0 0.00 0.00 0.00 72 1012.7
20260505060552 54 215 2.0 7.0 0.00 0.00 0.00 72 1012.5
20260505060055 55 198 2.0 7.0 0.00 0.00 0.00 72 1012.6
20260505055552 55 235 3.0 7.0 0.00 0.00 0.00 72 1012.5
20260505055055 55 207 2.0 6.0 0.00 0.00 0.00 72 1012.4
20260505054557 55 209 3.0 6.0 0.00 0.00 0.00 72 1012.5
20260505054050 55 201 3.0 8.0 0.00 0.00 0.00 72 1012.4
20260505053550 55 209 3.0 8.0 0.00 0.00 0.00 72 1012.3
20260505053055 55 206 3.0 8.0 0.00 0.00 0.00 72 1012.3
20260505052550 56 192 2.0 6.0 0.00 0.00 0.00 72 1012.2
20260505052051 56 194 2.0 9.0 0.00 0.00 0.00 72 1012.2
20260505051554 56 193 3.0 9.0 0.00 0.00 0.00 72 1012.2
20260505051049 57 199 3.0 7.0 0.00 0.00 0.00 72 1012.2
20260505050550 57 190 2.0 6.0 0.00 0.00 0.00 72 1012.2
20260505050128 58 181 3.0 8.0 0.00 0.00 0.00 72 1012.2
20260505041604 60 220 2.0 5.0 0.00 0.00 0.00 72 1011.5
20260505041048 61 213 1.0 5.0 0.00 0.00 0.00 72 1011.4
20260505040549 61 0 0.0 4.0 0.00 0.00 0.00 72 1011.4
20260505040100 62 0 0.0 0.0 0.00 0.00 0.00 72 1011.3
20260505035553 62 0 0.0 0.0 0.00 0.00 0.00 71 1011.1
20260505035049 63 0 0.0 0.0 0.00 0.00 0.00 71 1011.0
20260505034554 63 0 0.0 5.0 0.00 0.00 0.00 71 1011.0
20260505034050 64 0 1.0 5.0 0.00 0.00 0.00 71 1010.8
20260505033549 64 0 1.0 5.0 0.00 0.00 0.00 70 1010.8
20260505033052 64 217 2.0 5.0 0.00 0.00 0.00 70 1010.7
20260505032548 65 0 1.0 5.0 0.00 0.00 0.00 70 1010.6
20260505032050 65 0 1.0 5.0 0.00 0.00 0.00 70 1010.6
20260505031556 66 0 1.0 5.0 0.00 0.00 0.00 70 1010.6
20260505031047 66 0 0.0 5.0 0.00 0.00 0.00 69 1010.6
20260505030547 66 234 0.0 5.0 0.00 0.00 0.00 69 1010.4
20260505030058 66 0 0.0 5.0 0.00 0.00 0.00 69 1010.3
20260505025548 67 0 0.0 0.0 0.00 0.00 0.00 69 1010.3
20260505025047 67 0 0.0 0.0 0.00 0.00 0.00 69 1010.2
20260505024555 67 0 0.0 0.0 0.00 0.00 0.00 69 1010.2
20260505024047 67 0 0.0 0.0 0.00 0.00 0.00 68 1010.2
20260505023550 67 0 0.0 1.0 0.00 0.00 0.00 68 1010.1
20260505023055 68 0 0.0 7.0 0.00 0.00 0.00 68 1010.1
20260505022548 68 0 0.0 7.0 0.00 0.00 0.00 67 1010.1
20260505022048 68 0 0.0 5.0 0.00 0.00 0.00 67 1010.1
20260505021556 68 0 0.0 6.0 0.00 0.00 0.00 67 1010.1
20260505021050 68 232 1.0 6.0 0.00 0.00 0.00 67 1010.1
20260505020548 68 0 1.0 5.0 0.00 0.00 0.00 66 1010.0
20260505020054 68 220 0.0 5.0 0.00 0.00 0.00 66 1010.1
20260505015547 69 0 0.0 6.0 0.00 0.00 0.00 65 1010.1